Wolf Creek Pass, CO

12:53 PM MDT on September 21, 2017 (GMT -0600)
Wolf Creek Pass

Weather History for KCPW - October, 2012

Change the Weather History Date:

Monday, October 22, 2012

  Actual Average (KALS) Record (KALS)
Temperature  
Mean Temperature 34 °F -  
Max Temperature 41 °F 58 °F 76 °F (2003)
Min Temperature 28 °F 23 °F -7 °F (1996)
Degree Days  
Heating Degree Days 30    
Moisture  
Dew Point 23 °F    
Average Humidity 68    
Maximum Humidity 86    
Minimum Humidity 45    
Precipitation  
Precipitation 0.00 in - - ()
Sea Level Pressure  
Sea Level Pressure 30.22 in    
Wind  
Wind Speed 18 mph (SW)    
Max Wind Speed 30 mph    
Max Gust Speed 41 mph    
Visibility 10 miles    
Events      
Averages and records for this station are not official NWS values.
T = Trace of Precipitation, MM = Missing Value Source: NWS Daily Summary

Daily Weather History Graph

Daily Weather History Graph

Search for Another Location

Airport or City:

Trip Planner

Search our weather history database for the weather conditions in past years. The results will help you decide how hot, cold, wet, or windy it might be!

Date:

Astronomy

Oct. 22, 2012 Rise Set
Actual Time 7:22 AM MDT 6:20 PM MDT
Civil Twilight 6:55 AM MDT 6:46 PM MDT
Nautical Twilight 6:25 AM MDT 7:17 PM MDT
Astronomical Twilight 5:55 AM MDT 7:47 PM MDT
Moon 2:22 PM MDT (10/22) 12:20 AM MDT (10/22)
Length of Visible Light 11h 50m
Length of Day
10h 57m
First Quarter, 57% of the Moon is Illuminated
Oct 22
First Quarter
Oct 29
Full
Nov 6
Last Quarter
Nov 13
New
Nov 20
First Quarter

Hourly Weather History & Observations

Time (MDT) Temp. Windchill Dew Point Humidity Pressure Visibility Wind Dir Wind Speed Gust Speed Precip Events Conditions
12:18 AM 32.0 °F 21.6 °F 23.0 °F 69% 30.25 in 10.0 mi SW 15.0 mph 21.9 mph N/A   Clear
12:38 AM 32.0 °F 22.1 °F 23.0 °F 69% 30.24 in 10.0 mi WSW 13.8 mph - N/A   Clear
12:58 AM 32.0 °F 21.6 °F 23.0 °F 69% 30.24 in 10.0 mi SW 15.0 mph 20.7 mph N/A   Clear
1:18 AM 32.0 °F 22.5 °F 23.0 °F 69% 30.24 in 10.0 mi SW 12.7 mph 19.6 mph N/A   Clear
1:38 AM 32.0 °F 23.0 °F 23.0 °F 69% 30.24 in 10.0 mi SW 11.5 mph 19.6 mph N/A   Scattered Clouds
1:58 AM 32.0 °F 23.0 °F 23.0 °F 69% 30.24 in 10.0 mi SW 11.5 mph 20.7 mph N/A   Scattered Clouds
2:18 AM 32.0 °F 23.0 °F 23.0 °F 69% 30.24 in 10.0 mi SW 11.5 mph 18.4 mph N/A   Clear
2:58 AM 32.0 °F 21.6 °F 23.0 °F 69% 30.23 in 10.0 mi SW 15.0 mph 21.9 mph N/A   Clear
3:18 AM 32.0 °F 21.6 °F 24.8 °F 75% 30.22 in 10.0 mi SW 15.0 mph 27.6 mph N/A   Clear
3:38 AM 32.0 °F 22.1 °F 24.8 °F 75% 30.22 in 10.0 mi SW 13.8 mph 24.2 mph N/A   Clear
3:58 AM 32.0 °F 20.1 °F 24.8 °F 75% 30.22 in 10.0 mi SW 19.6 mph 29.9 mph N/A   Clear
4:18 AM 30.2 °F 18.5 °F 23.0 °F 75% 30.22 in 10.0 mi SW 17.3 mph 27.6 mph N/A   Clear
4:38 AM 30.2 °F 18.1 °F 23.0 °F 75% 30.22 in 10.0 mi SW 18.4 mph 25.3 mph N/A   Clear
4:58 AM 28.4 °F 15.8 °F 23.0 °F 80% 30.20 in 10.0 mi SW 18.4 mph 23.0 mph N/A   Clear
5:18 AM 28.4 °F 15.4 °F 23.0 °F 80% 30.20 in 10.0 mi SW 19.6 mph 25.3 mph N/A   Clear
5:38 AM 30.2 °F 16.2 °F 23.0 °F 75% 30.19 in 10.0 mi SW 25.3 mph 34.5 mph N/A   Clear
5:58 AM 30.2 °F 15.4 °F 24.8 °F 80% 30.19 in 10.0 mi WSW 28.8 mph 36.8 mph N/A   Clear
6:18 AM 30.2 °F 15.9 °F 24.8 °F 80% 30.20 in 10.0 mi WSW 26.5 mph 38.0 mph N/A   Clear
6:38 AM 30.2 °F 17.4 °F 24.8 °F 80% 30.20 in 10.0 mi WSW 20.7 mph 32.2 mph N/A   Clear
6:58 AM 28.4 °F 16.2 °F 23.0 °F 80% 30.20 in 10.0 mi SSW 17.3 mph 27.6 mph N/A   Clear
7:18 AM 28.4 °F 14.4 °F 24.8 °F 86% 30.20 in 10.0 mi SW 23.0 mph 28.8 mph N/A   Clear
7:38 AM 28.4 °F 14.4 °F 24.8 °F 86% 30.20 in 10.0 mi SW 23.0 mph 34.5 mph N/A   Clear
7:58 AM 28.4 °F 13.3 °F 24.8 °F 86% 30.20 in 10.0 mi SW 27.6 mph 35.7 mph N/A   Clear
8:18 AM 30.2 °F 18.1 °F 24.8 °F 80% 30.22 in 10.0 mi SW 18.4 mph 34.5 mph N/A   Clear
8:38 AM 30.2 °F 19.8 °F 24.8 °F 80% 30.22 in 10.0 mi SSW 13.8 mph 31.1 mph N/A   Scattered Clouds
8:58 AM 30.2 °F 19.3 °F 23.0 °F 75% 30.23 in 10.0 mi SSW 15.0 mph 27.6 mph N/A   Mostly Cloudy
9:18 AM 30.2 °F 18.1 °F 24.8 °F 80% 30.23 in 10.0 mi SW 18.4 mph 35.7 mph N/A   Mostly Cloudy
9:38 AM 32.0 °F 20.1 °F 24.8 °F 75% 30.24 in 10.0 mi SW 19.6 mph 31.1 mph N/A   Scattered Clouds
9:58 AM 32.0 °F 19.8 °F 24.8 °F 75% 30.24 in 10.0 mi SW 20.7 mph 33.4 mph N/A   Clear
10:18 AM 32.0 °F 19.2 °F 24.8 °F 75% 30.24 in 10.0 mi SW 23.0 mph 35.7 mph N/A   Clear
10:38 AM 33.8 °F 22.5 °F 24.8 °F 70% 30.24 in 10.0 mi SSW 19.6 mph 35.7 mph N/A   Clear
10:58 AM 33.8 °F 25.3 °F 24.8 °F 70% 30.25 in 10.0 mi SSW 11.5 mph 28.8 mph N/A   Clear
11:18 AM 35.6 °F 26.2 °F 23.0 °F 60% 30.25 in 10.0 mi SSW 15.0 mph 31.1 mph N/A   Clear
11:38 AM 35.6 °F 26.2 °F 23.0 °F 60% 30.24 in 10.0 mi SSW 15.0 mph 34.5 mph N/A   Clear
11:58 AM 35.6 °F 24.0 °F 21.2 °F 56% 30.23 in 10.0 mi SW 23.0 mph 36.8 mph N/A   Clear
12:18 PM 35.6 °F 25.5 °F 19.4 °F 52% 30.24 in 10.0 mi SW 17.3 mph 39.1 mph N/A   Clear
12:38 PM 35.6 °F 25.5 °F 21.2 °F 56% 30.24 in 10.0 mi SSW 17.3 mph 34.5 mph N/A   Clear
12:58 PM 35.6 °F 25.2 °F 23.0 °F 60% 30.24 in 10.0 mi SSW 18.4 mph 36.8 mph N/A   Clear
1:18 PM 35.6 °F 24.8 °F 23.0 °F 60% 30.23 in 10.0 mi SW 19.6 mph 35.7 mph N/A   Clear
1:38 PM 37.4 °F 27.2 °F 23.0 °F 56% 30.22 in 10.0 mi SSW 19.6 mph 33.4 mph N/A   Scattered Clouds
1:58 PM 37.4 °F 26.9 °F 23.0 °F 56% 30.22 in 10.0 mi SSW 20.7 mph 33.4 mph N/A   Scattered Clouds
2:18 PM 39.2 °F 28.7 °F 23.0 °F 52% 30.21 in 10.0 mi SW 23.0 mph 32.2 mph N/A   Scattered Clouds
2:38 PM 41.0 °F 31.6 °F 21.2 °F 45% 30.20 in 10.0 mi SW 20.7 mph 38.0 mph N/A   Clear
2:58 PM 39.2 °F 30.2 °F 23.0 °F 52% 30.21 in 10.0 mi SSW 17.3 mph 32.2 mph N/A   Clear
3:18 PM 37.4 °F 26.6 °F 23.0 °F 56% 30.21 in 10.0 mi SW 21.9 mph 33.4 mph N/A   Scattered Clouds
3:38 PM 35.6 °F 24.2 °F 23.0 °F 60% 30.21 in 10.0 mi SW 21.9 mph 34.5 mph N/A   Clear
3:58 PM 37.4 °F 28.2 °F 21.2 °F 52% 30.21 in 10.0 mi SW 16.1 mph 35.7 mph N/A   Clear
4:18 PM 35.6 °F 24.8 °F 19.4 °F 52% 30.20 in 10.0 mi SSW 19.6 mph 39.1 mph N/A   Clear
4:38 PM 37.4 °F 25.0 °F 19.4 °F 48% 30.21 in 10.0 mi SW 29.9 mph 39.1 mph N/A   Clear
4:58 PM 35.6 °F 25.2 °F 21.2 °F 56% 30.21 in 10.0 mi SW 18.4 mph 36.8 mph N/A   Clear
5:18 PM 35.6 °F 23.7 °F 21.2 °F 56% 30.21 in 10.0 mi SW 24.2 mph 36.8 mph N/A   Scattered Clouds
5:38 PM 35.6 °F 23.4 °F 23.0 °F 60% 30.21 in 10.0 mi SW 25.3 mph 35.7 mph N/A   Scattered Clouds
5:58 PM 33.8 °F 20.8 °F 21.2 °F 60% 30.20 in 10.0 mi SSW 26.5 mph 41.4 mph N/A   Clear
6:18 PM 32.0 °F 23.0 °F 21.2 °F 64% 30.20 in 10.0 mi SW 11.5 mph 38.0 mph N/A   Clear
6:38 PM 32.0 °F 20.8 °F 23.0 °F 69% 30.22 in 10.0 mi SW 17.3 mph 27.6 mph N/A   Scattered Clouds
6:58 PM 32.0 °F 19.8 °F 23.0 °F 69% 30.23 in 10.0 mi SSW 20.7 mph 31.1 mph N/A   Clear
7:18 PM 32.0 °F 19.2 °F 21.2 °F 64% 30.24 in 10.0 mi SW 23.0 mph 31.1 mph N/A   Clear
7:38 PM 32.0 °F 18.9 °F 21.2 °F 64% 30.24 in 10.0 mi WSW 24.2 mph 35.7 mph N/A   Clear
7:58 PM 32.0 °F 19.5 °F 21.2 °F 64% 30.24 in 10.0 mi SW 21.9 mph 33.4 mph N/A   Clear
8:18 PM 32.0 °F 19.2 °F 21.2 °F 64% 30.23 in 10.0 mi SW 23.0 mph 34.5 mph N/A   Clear
8:38 PM 32.0 °F 18.6 °F 21.2 °F 64% 30.24 in 10.0 mi SW 25.3 mph 33.4 mph N/A   Clear
8:58 PM 32.0 °F 18.6 °F 23.0 °F 69% 30.24 in 10.0 mi SW 25.3 mph 31.1 mph N/A   Clear
9:18 PM 32.0 °F 18.6 °F 23.0 °F 69% 30.24 in 10.0 mi SW 25.3 mph 38.0 mph N/A   Clear
9:38 PM 32.0 °F 18.1 °F 23.0 °F 69% 30.24 in 10.0 mi SW 27.6 mph 38.0 mph N/A   Clear
9:58 PM 32.0 °F 18.6 °F 23.0 °F 69% 30.24 in 10.0 mi SW 25.3 mph 32.2 mph N/A   Clear
10:18 PM 32.0 °F 18.9 °F 23.0 °F 69% 30.24 in 10.0 mi SW 24.2 mph 34.5 mph N/A   Clear
10:38 PM 32.0 °F 19.5 °F 23.0 °F 69% 30.24 in 10.0 mi SW 21.9 mph 35.7 mph N/A   Clear
10:58 PM 32.0 °F 18.6 °F 23.0 °F 69% 30.24 in 10.0 mi SW 25.3 mph 34.5 mph N/A   Clear
11:18 PM 32.0 °F 19.5 °F 23.0 °F 69% 30.23 in 10.0 mi SW 21.9 mph 32.2 mph N/A   Clear
11:38 PM 32.0 °F 19.5 °F 23.0 °F 69% 30.22 in 10.0 mi SSW 21.9 mph 34.5 mph N/A   Clear
11:58 PM 32.0 °F 18.4 °F 23.0 °F 69% 30.22 in 10.0 mi SW 26.5 mph 39.1 mph N/A   Clear